Regional Weather Roundup
Issued by NWS

Home | Current Version | Previous Version | Text Only | Print | Product List | Glossary Off
Versions: 1 2 3 4 5 6 7 8 9 10 11 12 13 14 15 16 17 18 19 20 21 22 23 24 25 26 27

000
ASUS45 KPSR 100510
RWRAZ

ARIZONA HOURLY REGIONAL WEATHER ROUNDUP
NATIONAL WEATHER SERVICE PHOENIX AZ
1000 PM MST FRI DEC 09 2016

NOTE: FAIR INDICATES FEW OR NO CLOUDS BELOW 12,000 FEET WITH NO
SIGNIFICANT WEATHER AND/OR OBSTRUCTIONS TO VISIBILITY.

AZZ001>003-036-100600-
NORTHWEST ARIZONA

CITY           SKY/WX    TMP DP  RH WIND       PRES   REMARKS
BULLHEAD CITY  PTCLDY    57  19  23 N12       30.19R
KINGMAN        CLEAR     38  28  67 SW6       30.21S WCI  33
$$

AZZ004>008-015-016-018-100600-
NORTH CENTRAL ARIZONA

CITY           SKY/WX    TMP DP  RH WIND       PRES   REMARKS
GRAND CANYON   PTCLDY    27  25  92 CALM      30.26F
WILLIAMS       MOCLDY    30  28  93 S8        30.28R WCI  23
PRESCOTT       MOCLDY    37  32  82 S6        30.25R WCI  32
FLAGSTAFF      PTCLDY    26  24  92 CALM      30.29R
PAYSON         CLEAR     39  32  75 CALM      30.28R
PAGE           MOCLDY    37  16  42 SW5       30.23S WCI  33
$$

AZZ009>014-017-100600-
NORTHEAST ARIZONA

CITY           SKY/WX    TMP DP  RH WIND       PRES   REMARKS
WINSLOW        CLEAR     33  25  72 CALM      30.26S
SAINT JOHNS    CLEAR     35  25  66 S5        30.26S WCI  31
WINDOW ROCK    CLEAR     26  21  81 CALM      30.29S
SHOW LOW       CLEAR     37  27  65 S6        30.29S WCI  33
$$

AZZ023-100600-
GREATER PHOENIX AREA

CITY           SKY/WX    TMP DP  RH WIND       PRES   REMARKS
PHOENIX        PTCLDY    59  40  49 CALM      30.13R
BUCKEYE          N/A     54  37  54 N5        30.15S
LUKE AFB       CLEAR     53  40  61 CALM      30.13R
DEER VALLEY    CLEAR     56  38  50 CALM      30.13S
SCOTTSDALE     CLEAR     53  40  61 CALM      30.14S
MESA-GATEWAY   CLEAR     52  39  62 S5        30.14S
$$

AZZ027-028-100600-
SOUTHWEST MARICOPA COUNTY AND PINAL COUNTY

CITY           SKY/WX    TMP DP  RH WIND       PRES   REMARKS
CASA GRANDE    NOT AVBL
GILA BEND      FAIR      52  37  56 SE8       30.13S
$$

AZZ503-504-507>509-100600-
SOUTHEAST ARIZONA

CITY           SKY/WX    TMP DP  RH WIND       PRES   REMARKS
TUCSON         MOCLDY    53  32  44 SE5       30.19R
DAVIS-MONTHAN  PTCLDY    49  34  55 SE7       30.18R
NOGALES        PTCLDY    49  30  48 CALM      30.20R
SIERRA VISTA   MOCLDY    49  30  48 SW1       30.24S
DOUGLAS        PTCLDY    42  31  64 CALM      30.23S
SAFFORD        MOCLDY    49  33  54 SE9       30.22S
$$

AZZ020-021-025-026-031-100600-
SOUTHWEST ARIZONA

CITY           SKY/WX    TMP DP  RH WIND       PRES   REMARKS
YUMA           CLEAR     59  23  25 N5        30.14R
$$

CAZ031-033-041-043-047-048-061-100600-
SOUTHERN CALIFORNIA

CITY           SKY/WX    TMP DP  RH WIND       PRES   REMARKS
DOWNTOWN L.A.  PTCLDY    57  56  96 CALM      30.17R FOG
L.A. AIRPORT   MOCLDY    60  58  92 SE3       30.18R
SAN DIEGO      MOCLDY    61  55  81 NW3       30.20R
BURBANK        CLEAR     55  51  86 CALM      30.17R
ONTARIO        PTCLDY    52  47  83 CALM      30.17S
RIVERSIDE      CLEAR     54  48  80 CALM      30.18S
PALM SPRINGS   PTCLDY    57  40  52 N5        30.17R
EL CENTRO NAS  CLEAR     52  29  41 CALM      30.16S
IMPERIAL       CLEAR     52  39  61 NW3       30.15R
BLYTHE         CLEAR     52  20  28 NW6       30.16R
NEEDLES        PTCLDY    54  17  23 NW6       30.19R
$$

NVZ020-UTZ003-100600-
SOUTHERN NEVADA-UTAH

CITY           SKY/WX    TMP DP  RH WIND       PRES   REMARKS
LAS VEGAS      PTCLDY    49  13  23 CALM      30.23R
SALT LAKE CITY MOCLDY    32  29  88 N7        30.07R WCI  26
$$

NMZ009-TXZ055-100600-
NEW MEXICO-WEST TEXAS

CITY           SKY/WX    TMP DP  RH WIND       PRES   REMARKS
ALBUQUERQUE    CLOUDY    34  25  69 E6        30.30S WCI  29
EL PASO        PTCLDY    39  30  70 CALM      30.31R
$$


........................KEY........................
SKY/WX - SKY CONDITION/WEATHER
TMP    - TEMPERATURE IN FAHRENHEIT
DP     - DEW POINT IN FAHRENHEIT
RH     - RELATIVE HUMIDITY IN PERCENT
WIND   - DIRECTION AND SPEED IN MILES PER HOUR (MPH)
VRB    - VARIABLE WIND DIRECTION
PRES   - MEAN SEA LEVEL PRESSURE IN INCHES OF MERCURY
         F - FALLING PRESSURE   R - RISING PRESSURE
         S - STEADY PRESSURE
VSB    - VISIBILITY IN MILES
HX     - HEAT INDEX IN FAHRENHEIT
WCI    - WIND CHILL INDEX IN FAHRENHEIT
TC     - TEMPERATURE IN CELSIUS WHICH IS ALSO KNOWN AS
         TEMPERATURE IN CENTIGRADE
AFB    - AIR FORCE BASE
         LUKE AFB IS LUKE AIR FORCE BASE
         DAVIS-MONTHAN IS DAVIS-MONTHAN AIR FORCE BASE
NAS    - NAVAL AIR STATION
         EL CENTRO NAS IS EL CENTRO NAVAL AIR STATION
N/A    - NOT AVAILABLE





USA.gov is the U.S. government's official web portal to all federal, state and local government web resources and services.